Regional Weather Roundup
Issued by NWS

Home | Current Version | Previous Version | Text Only | Print | Product List | Glossary Off
Versions: 1 2 3 4 5 6 7 8 9 10 11 12 13 14 15 16 17 18 19 20 21 22 23 24 25 26 27 28 29 30 31 32 33 34 35 36 37 38 39 40 41 42 43 44 45 46 47 48 49 50

000
ASUS45 KBOI 310710
RWRID
WEATHER ROUNDUP FOR IDAHO
NATIONAL WEATHER SERVICE BOISE ID
1200 AM MST SAT JAN 31 2015

NOTE: "FAIR" INDICATES FEW OR NO CLOUDS BELOW 12000 FEET
WITH NO SIGNIFICANT WEATHER AND/OR OBSTRUCTIONS TO VISIBILITY

IDZ012-014-310800-
SOUTHWEST IDAHO


CITY           SKY/WX    TMP DP  RH WIND       PRES   REMARKS
BOISE          CLEAR     29  25  85 CALM      30.16S
CALDWELL       CLEAR     30  23  74 CALM      30.18F
MOUNTAIN HOME  CLEAR     28  26  94 W6        30.15S WCI  21
$$

IDZ016-017-310800-
SOUTHCENTRAL IDAHO


CITY           SKY/WX    TMP DP  RH WIND       PRES   REMARKS
BURLEY         CLOUDY    35  31  85 W7        30.12S WCI  29
JEROME         CLEAR     30  28  92 S5        30.13S WCI  25
TWIN FALLS     CLOUDY    35  30  82 SW3       30.13S
$$

IDZ019>023-310800-
SOUTHEAST IDAHO


CITY           SKY/WX    TMP DP  RH WIND       PRES   REMARKS
IDAHO FALLS    PTCLDY    29  26  89 SW7       30.08F WCI  22
POCATELLO      CLOUDY    32  31  96 SW10      30.10F WCI  24
REXBURG        PTCLDY    20  17  88 CALM      30.08S
$$

IDZ006-010-011-018-031-032-310800-
CENTRAL IDAHO MOUNTAINS


CITY           SKY/WX    TMP DP  RH WIND       PRES   REMARKS
MCCALL         CLEAR     19  16  88 CALM      30.12S
HAILEY         CLEAR     27  19  74 NW12      30.10S WCI  16
STANLEY          N/A      2  -4  76 S5        30.17S WCI  -8
SALMON         CLOUDY    27  21  80 CALM      30.24S
CHALLIS        CLOUDY    25  19  78 CALM      30.20S
$$

IDZ002-004-006-007-026-310800-
NORTHERN IDAHO


CITY           SKY/WX    TMP DP  RH WIND       PRES   REMARKS
LEWISTON       CLOUDY    36  32  85 CALM      30.28S
LOWELL           N/A     35  30  82 CALM      30.31S
COEUR D`ALENE  CLOUDY    30  27  86 SW5       30.23S WCI  25
MULLAN PASS    CLOUDY    28  21  75 W6        30.07F WCI  22
$$


USA.gov is the U.S. government's official web portal to all federal, state and local government web resources and services.